{"data":{"norad_id":53444,"epoch":"2026-05-25T04:38:10.832352Z","epoch_age_seconds":58333,"freshness":"FRESH","line1":"1 53444U 22098A   26145.19318093  .00076796  00000+0  69763-3 0  9991","line2":"2 53444  97.5512 274.2063 0003332  98.9771 261.1867 15.67741708211143","mean_motion":15.67741708,"eccentricity":0.0003332,"inclination_deg":97.5512,"raan_deg":274.2063,"arg_perigee_deg":98.9771,"mean_anomaly_deg":261.1867,"bstar":0.00069763,"rev_number":21114,"period_min":91.851865179822,"perigee_km":363.11820594482,"apogee_km":367.61207577149,"semimajor_km":6743.5021408582,"source":"CELESTRAK","updated_at":"2026-05-25T13:37:58.191013Z"}}